Pitkin, LA

8:58 PM CST on February 24, 2017 (GMT -0600)
Fort Polk

Weather History for KBKB - March, 2013

Change the Weather History Date:

Friday, March 8, 2013

  Actual Average (KPOE) Record (KPOE)
Temperature  
Mean Temperature 54 °F -  
Max Temperature 72 °F 65 °F 79 °F (2006)
Min Temperature 36 °F 45 °F 34 °F (2008)
Degree Days  
Heating Degree Days 11    
Growing Degree Days 4 (Base 50)    
Moisture  
Dew Point 41 °F    
Average Humidity 62    
Maximum Humidity 93    
Minimum Humidity 31    
Precipitation  
Precipitation 0.00 in - - ()
Sea Level Pressure  
Sea Level Pressure 30.36 in    
Wind  
Wind Speed 1 mph (NE)    
Max Wind Speed 6 mph    
Max Gust Speed -    
Visibility 10 miles    
Events      
Averages and records for this station are not official NWS values.
T = Trace of Precipitation, MM = Missing Value Source: NWS Daily Summary

Daily Weather History Graph

Daily Weather History Graph

Search for Another Location

Airport or City:

Trip Planner

Search our weather history database for the weather conditions in past years. The results will help you decide how hot, cold, wet, or windy it might be!

Date:

Astronomy

Mar. 08, 2013 Rise Set
Actual Time 6:29 AM CST 6:15 PM CST
Civil Twilight 6:05 AM CST 6:39 PM CST
Nautical Twilight 5:37 AM CST 7:07 PM CST
Astronomical Twilight 5:09 AM CST 7:35 PM CST
Moon 4:03 AM CST (3/8) 3:20 PM CST (3/8)
Length of Visible Light 12h 33m
Length of Day
11h 45m
Waning Crescent, 11% of the Moon is Illuminated
Mar 8
Waning Crescent
Mar 11
New
Mar 19
First Quarter
Mar 27
Full
Apr 2
Last Quarter

Hourly Weather History & Observations

Time (CST) Temp. Dew Point Humidity Pressure Visibility Wind Dir Wind Speed Gust Speed Precip Events Conditions
12:54 AM 37.9 °F 35.1 °F 89% 30.31 in 10.0 mi Calm Calm - N/A   Clear
1:54 AM 37.9 °F 34.0 °F 86% 30.30 in 10.0 mi Calm Calm - N/A   Clear
2:54 AM 37.0 °F 34.0 °F 89% 30.29 in 10.0 mi Calm Calm - N/A   Clear
3:54 AM 36.0 °F 34.0 °F 93% 30.28 in 8.0 mi Calm Calm - N/A   Clear
4:54 AM 37.0 °F 35.1 °F 93% 30.28 in 8.0 mi Calm Calm - N/A   Clear
5:54 AM 37.9 °F 35.1 °F 89% 30.31 in 8.0 mi Calm Calm - N/A   Clear
6:54 AM 39.0 °F 36.0 °F 89% 30.32 in 7.0 mi Calm Calm - N/A   Clear
7:54 AM 48.9 °F 43.0 °F 80% 30.34 in 10.0 mi Calm Calm - N/A   Clear
8:54 AM 55.0 °F 44.1 °F 67% 30.35 in 10.0 mi Variable 3.5 mph - N/A   Clear
9:54 AM 61.0 °F 46.0 °F 58% 31.08 in 10.0 mi Variable 4.6 mph - N/A   Clear
10:54 AM 64.0 °F 46.0 °F 52% 31.08 in 10.0 mi Variable 3.5 mph - N/A   Clear
11:54 AM 66.9 °F 44.1 °F 44% 30.32 in 10.0 mi Variable 5.8 mph - N/A   Clear
12:54 PM 69.1 °F 41.0 °F 36% 30.31 in 10.0 mi ESE 3.5 mph - N/A   Clear
1:54 PM 70.0 °F 37.9 °F 31% 30.27 in 10.0 mi North 3.5 mph - N/A   Clear
2:54 PM 72.0 °F 44.1 °F 37% 30.24 in 10.0 mi Calm Calm - N/A   Clear
3:54 PM 72.0 °F 44.1 °F 37% 30.22 in 10.0 mi Variable 3.5 mph - N/A   Clear
4:54 PM 71.1 °F 46.9 °F 42% 30.20 in 10.0 mi Calm Calm - N/A   Clear
5:54 PM 66.9 °F 48.9 °F 52% 30.94 in 10.0 mi Calm Calm - N/A   Clear
6:54 PM 62.1 °F 46.0 °F 56% 30.24 in 10.0 mi Calm Calm - N/A   Clear
7:54 PM 60.1 °F 44.1 °F 55% 30.25 in 10.0 mi Calm Calm - N/A   Clear
8:54 PM 59.0 °F 45.0 °F 60% 30.25 in 10.0 mi Variable 3.5 mph - N/A   Clear
9:54 PM 60.1 °F 41.0 °F 49% 30.22 in 10.0 mi Variable 3.5 mph - N/A   Clear
10:54 PM 60.1 °F 42.1 °F 51% 30.18 in 10.0 mi Variable 4.6 mph - N/A   Clear
11:54 PM 57.9 °F 41.0 °F 53% 30.18 in 10.0 mi Variable 3.5 mph - N/A   Clear